Погода в Карабалыке

Казахстан     53°45′08″N   62°03′17″E
темп.,
°C
ветер,
м/с
пор.,
м/с
влажн.,
%
обл.,
%
осадки,
мм/ч
давл.,
гПа
погр.,
м
26 июня, вс
вс2600:00+15зсз34760 0.0 100351
03:00+14сз49875 0.0 1004171
06:00+13сз410910 0.0 1004274
09:00+16ссз696942 0.0 1005686
12:00+17сз685742 0.0 10051655
15:00+18ссз7949100 0.1 10052122
18:00+16ссз795530 0.1 10071722
21:00+13ссз596820 0.0 10081151
27 июня, пн
пн2700:00+10сз5117613 0.0 1010428
03:00+10сз6872100 0.0 1010883
06:00+9сз5974100 0.0 1011749
09:00+10ссз577355 0.0 1012759
12:00+13сз5664100 0.0 10121212
15:00+15зсз5762100 0.0 10121280
18:00+17зсз585212 0.0 10101607
21:00+17зюз22625 0.0 100916
28 июня, вт
вт2800:00+13юз47725 0.0 1009102
03:00+14зюз5127542 0.0 1006334
06:00+13зсз5118198 0.0 1006414
09:00+12ссз6976100 0.0 1007793
12:00+13ссз6662100 0.1 10081309
15:00+14с7755100 0.0 10081428
18:00+13ссз7757100 0.0 10081183
21:00+10с6969100 0.0 1009999
29 июня, ср
ср2900:00+6сз48815 0.0 1010244
03:00+5сз5118382 0.0 1009489
06:00+6сз6117999 0.0 1010511
09:00+8сз7971100 0.0 1009664
12:00+12сз7855100 0.0 10081629
15:00+9сз71073100 0.0 10091181
18:00+9зсз51278100 0.0 1010795
21:00+13с227528 0.0 100973
30 июня, чт
чт3000:00+9з459084 0.0 100878
03:00+12зсз51077100 0.0 1007318
06:00+10зсз51081100 0.0 1007261
09:00+13сз696987 0.0 1007520
12:00+16сз71048100 0.0 10071500
15:00+17сз5745100 0.0 10062332
18:00+17з454893 0.0 10051930
21:00+15зюз226778 0.0 100538